This is the latest recevied weather packets stored in our database for station/object W6TKD-13. If no packets are shown the sender has not sent any weather packets the latest 10 day(s).
| Time | Temp. | Humidity | Pressure | Rain* | Wind** | Luminosity | Snow |
|---|---|---|---|---|---|---|---|
| 1787875905 | 37.22° C | 11% | 1015.3 hPa | 0 mm | - | - | - |
| 1787875308 | 38.89° C | 11% | 1015.4 hPa | 0 mm | - | - | - |
| 1787874571 | 40° C | 10% | 1015.3 hPa | 0 mm | - | - | - |
| 1787873904 | 41.11° C | 10% | 1015.2 hPa | 0 mm | - | - | - |
| 1787873237 | 41.67° C | 10% | 1015.1 hPa | 0 mm | - | - | - |
| 1787872572 | 41.11° C | 11% | 1015.3 hPa | 0 mm | - | - | - |
| 1787871903 | 40° C | 11% | 1015.2 hPa | 0 mm | - | - | - |
| 1787871236 | 40° C | 11% | 1015.4 hPa | 0 mm | - | - | - |
| 1787870569 | 40.56° C | 11% | 1015.3 hPa | 0 mm | - | - | - |
| 1787869907 | 40° C | 11% | 1015.4 hPa | 0 mm | - | - | - |
| 1787869235 | 40° C | 11% | 1015.5 hPa | 0 mm | - | - | - |
| 1787868568 | 41.11° C | 10% | 1015.5 hPa | 0 mm | - | - | - |
| 1787867908 | 41.11° C | 10% | 1015.6 hPa | 0 mm | - | - | - |
| 1787867234 | 41.11° C | 10% | 1015.5 hPa | 0 mm | - | - | - |
| 1787866568 | 41.67° C | 10% | 1015.5 hPa | 0 mm | - | - | - |
| 1787865900 | 42.22° C | 10% | 1015.5 hPa | 0 mm | - | - | - |
| 1787865233 | 42.22° C | 10% | 1015.5 hPa | 0 mm | - | - | - |
| 1787864567 | 42.22° C | 10% | 1015.5 hPa | 0 mm | - | - | - |
| 1787863232 | 42.78° C | 9% | 1015.4 hPa | 0 mm | - | - | - |
| 1787862567 | 42.22° C | 10% | 1015.5 hPa | 0 mm | - | - | - |
| 1787861898 | 41.67° C | 10% | 1015.1 hPa | 0 mm | - | - | - |
| 1787861231 | 40° C | 10% | 1015.3 hPa | 0 mm | - | - | - |
| 1787859897 | 38.33° C | 11% | 1015.3 hPa | 0 mm | - | - | - |
| 1787859230 | 37.78° C | 11% | 1015.3 hPa | 0 mm | - | - | - |
| 1787858564 | 38.33° C | 11% | 1015.3 hPa | 0 mm | - | - | - |
* Rain since midnight (hover to see other rain measurements)
** Current wind speed in m/s (hover to see current wind gust speed)